STARLINK-1810, 46709

Orbit data source: Space-Track

STARLINK-1810, 46709 is a payload satellite owned by SpaceX/Seattle (US) in LEO that was launched on Sun, 18 Oct 2020 UTC via an FALCON 9 launch vehicle from the Air Force Eastern Test Range (AFETR). Payload-class satellites include a variety of spacecraft equipped with specific instruments for various scientific and technological missions. These include communications satellites like Starlink; space stations such as the ISS; scientific satellites like the Hubble; Earth observation satellites from companies like Planet Labs, Umbra, and HawkEye 360; GPS; miniature CubeSats for education and research; and military/defense satellites.

Loading next visibility...
Identifier
46709, 2020-073AR
Orbit
LEO
Country
Flag of USUS
Related business
Manufacturer
SpaceX/Seattle
Mission
Partially operational Commercial Communications
Bus & Motor
STARLINK, Unknown motor
Mass
260 kg wet, ~248 kg dry
Launch date (UTC)
2020-10-18 (6 years ago)
Launch vehicle
FALCON 9
Launch site
Air Force Eastern Test Range (AFETR)
Object type
Payload
Rocket body
Debris
Shape & HBR
Box + 1 Pan, 10.1 m
Radar Cross Section
13.562 m², Large (>1 m²)

Expand to show TLE details & history
Last TLE update: 23 hours ago

TLE from 23 hours ago
0 STARLINK-1810
1 46709U 20073AR  26168.13376227  .00058457  00000-0  58555-3 0  9992
2 46709  53.0407 110.5265 0006216  72.5185 287.6508 15.64981844312743
Epoch: 2026-06-17T03:12Z
TLE epoch observation values (Epoch: 2026-06-17T03:12:37.060Z)
Latitude
-0.00003°
Longitude
156.97625°
Altitude
372.921 km
Speed
7.688 km/s
True Right ascension
07h 22m 06s
True Declination
0° 00' 00"
Sunlit
Object was in daylight at epoch
Visualization orbit readout
Latitude
Unknown
Longitude
Unknown
Altitude
Unknown
Speed
Unknown
Apparent Right ascension
Unknown
Apparent Declination
Unknown
Sunlit
N/A
Visualization observer readout
Local Sidereal Time
13:25:14
Azimuth
Unknown
Elevation
Unknown
Doppler factor
Unknown
Orbital elements
Apogee altitude
377.768 km
Perigee altitude
369.374 km
Semi-major axis
6,751.708 km
Eccentricity
0.00062
Inclination
53.0407°
RAAN
110.5265°
Arg. of periapsis
72.5185°
True anomaly
287.58291°
Mean anomaly
287.6508°
Eccentric anomaly
287.61686°
Mean motion
3.91222 °/min
Orbital period
92.02 mins
BSTAR
0.00058555
Loading maneuver chart data...
Computing Atmospheric mass density...

Documentation

Showing up to 5 results
|